Regional Weather Roundup
Issued by NWS

Home | Current Version | Previous Version | Graphics & Text | Print | Product List | Glossary Off
Versions: 1 2 3 4 5 6 7 8 9 10 11 12 13 14 15 16 17 18 19 20 21 22 23 24 25 26 27 28 29 30 31 32 33 34 35 36 37 38 39 40 41 42 43 44 45 46 47 48 49 50

000
ASUS43 KMKX 221711
RWRWI

WISCONSIN REGIONAL WEATHER ROUNDUP
NATIONAL WEATHER SERVICE MILWAUKEE/SULLIVAN WI
1200 PM CDT WED OCT 22 2014

NOTE: "FAIR" INDICATES FEW OR NO CLOUDS BELOW 12,000 FEET WITH NO
SIGNIFICANT WEATHER AND/OR OBSTRUCTIONS TO VISIBILITY.

WIZ001-002-006>008-014>016-023>028-221800-
NORTHWEST WISCONSIN

CITY           SKY/WX    TMP DP  RH WIND       PRES   REMARKS
SUPERIOR ARPT  SUNNY     55  40  55 S8        30.18F
ASHLAND        SUNNY     52  36  54 S7        30.23F
HAYWARD        SUNNY     49  37  63 S12       30.23F
SIREN          SUNNY     53  38  56 S10G21    30.19F
CUMBERLAND     SUNNY     50  36  57 SE13G21   30.22F
RICE LAKE      SUNNY     50  38  62 SE12      30.25F
CHETEK         SUNNY     49  39  66 SE14G22   30.25F
LADYSMITH      SUNNY     50  38  63 S13       30.28F
EAU CLAIRE     SUNNY     51  36  56 S14       30.25F
MENOMONIE      SUNNY     52  38  60 SE16      30.25F
NEW RICHMOND   SUNNY     53  38  57 S14       30.20F
OSCEOLA        MOSUNNY   53  40  61 SE16G23   30.21F
$$

WIZ003>005-009-010-017-018-221800-
NORTH CENTRAL WISCONSIN

CITY           SKY/WX    TMP DP  RH WIND       PRES   REMARKS
MANITOWISH WTR SUNNY     47  33  58 S12       30.26F
ARBOR VITAE    SUNNY     49  34  54 S10       30.28F
WOODRUFF       SUNNY     49  34  54 S10       30.28F
RHINELANDER    SUNNY     47  31  53 VRB7      30.31F
EAGLE RIVER    SUNNY     47  30  52 S8        30.29F
LAND O LAKES   SUNNY     48  32  54 S10       30.30F
PHILLIPS       SUNNY     47  33  58 S10       30.27F
TOMAHAWK       SUNNY     48  32  54 CALM      30.30F
MEDFORD        SUNNY     47  34  61 S8        30.30F
MERRILL        SUNNY     48  34  59 SE8       30.32F
$$

WIZ029-030-035-036-043>047-221800-
CENTRAL WISCONSIN

CITY           SKY/WX    TMP DP  RH WIND       PRES   REMARKS
WAUSAU         SUNNY     48  35  60 SE10      30.31F
MOSINEE        SUNNY     46  37  71 SE8       30.33F
MARSHFIELD     SUNNY     50  36  58 SE9       30.31F
STEVENS POINT  SUNNY     47  36  65 SE8       30.34F
WAUPACA        SUNNY     51  40  67 S6        30.37S HAZE
WAUTOMA        CLOUDY    50  38  63 SE8       30.36F
WISC RAPIDS    SUNNY     50  36  58 SE9       30.34F
CAMP DOUGLAS   MOSUNNY   52  39  62 VRB7      30.32F
$$

WIZ011>013-019>022-031-037>040-048>050-221800-
NORTHEAST WISCONSIN

CITY           SKY/WX    TMP DP  RH WIND       PRES   REMARKS
ANTIGO         SUNNY     44  36  74 SE8       30.34F
SHAWANO        SUNNY     51  38  61 SE6       30.37F
OCONTO         SUNNY     47  35  63 S6        30.39S
STURGEON BAY   MOSUNNY   46  36  66 SE6       30.40S
GREEN BAY      MOSUNNY   49  38  65 S6        30.38F
MANITOWOC      SUNNY     48  38  68 S7        30.39S
APPLETON       MOSUNNY   48  37  66 VRB5      30.37S
CLINTONVILLE   SUNNY     48  37  66 SE6       30.37S
OSHKOSH        SUNNY     50  39  66 SW5       30.36F
$$

WIZ032>034-041-042-053>061-221800-
SOUTHWEST WISCONSIN

CITY           SKY/WX    TMP DP  RH WIND       PRES   REMARKS
LA CROSSE      SUNNY     53  36  52 S9        30.29F
SPARTA         SUNNY     53  33  46 S8        30.31F
VIROQUA        SUNNY     52  38  59 S6        30.30F
BOSCOBEL       SUNNY     54  39  57 VRB7      30.33F
PRAIRIE DU CHI SUNNY     52  36  54 S9        30.31F
PLATTEVILLE    SUNNY     52  40  64 S9        30.33S
$$

WIZ056-057-062-063-064-067-068-221800-
SOUTH CENTRAL WISCONSIN

CITY           SKY/WX    TMP DP  RH WIND       PRES   REMARKS
REEDSBURG      SUNNY     51  39  64 SE6       30.33S
BARABOO/DELLS  SUNNY     51  38  61 S7        30.34S
LONE ROCK      SUNNY     54  40  59 VRB5      30.33F
MINERAL POINT  SUNNY     52  39  62 S8        30.33S
MADISON        SUNNY     51  39  63 S7        30.34F
MIDDLETON      SUNNY     54  38  55 S9        30.35S
WATERTOWN      SUNNY     52  40  64 SE7       30.35F
MONROE         SUNNY     52  39  62 S13G18    30.33F
JANESVILLE     SUNNY     55  39  54 S6        30.34F
$$

WIZ051-052-058>065-066-070>072-221800-
SOUTHEAST WISCONSIN

CITY           SKY/WX    TMP DP  RH WIND       PRES   REMARKS
MILWAUKEE      PTSUNNY   51  41  68 E8        30.37F
WAUKESHA       PTSUNNY   48  39  71 SE7       30.38S
MILWAUKEE/TIMM PTSUNNY   52  37  58 SE7       30.37F
RACINE         PTSUNNY   51  40  65 VRB6      30.39S
BURLINGTON     MOSUNNY   52  39  61 CALM      30.36F
KENOSHA        MOSUNNY   52  41  66 SE8       30.37S
FOND DU LAC    SUNNY     52  39  61 S6        30.37S
SHEBOYGAN      MOSUNNY   50  37  61 VRB3      30.38S
WEST BEND      PTSUNNY   52  36  54 SE3       30.37S
JUNEAU         MOSUNNY   51  39  65 S6        30.37S
$$

LSZ147-162-221800-
LAKE SUPERIOR

STATION/POSITION TIME  TEMP    WIND        PRES    WAVE
                       AIR SEA DIR/SP/G            HT/PER
                 (UTC) (F)     (DEG/KT/KT) (MB)    (FT/S)
W MID LAKE BUOY  1650   45 46  150/ 10/ 12 1025.1F   2/ 4
DEVILS ISLAND    1700   48     170/ 11/ 13 1024.1F
PORT WING        1640   54     170/  8/ 12 1022.7F
SAXON HARBOR     1600   52     180/  6/ 14 1024.0F
$$

LMZ867-665-643>646-221800-
LAKE MICHIGAN

STATION/POSITION TIME  TEMP    WIND        PRES    WAVE
                       AIR SEA DIR/SP/G            HT/PER
                 (UTC) (F)     (DEG/KT/KT) (MB)    (FT/S)
CHAMBERS ISLAND  1600   46     100/  6/  9 1029.1F
N MID LAKE BUOY  1650   42 51  160/  6/  8 1030.1S   1
NORTHPORT PIER   1600   44     150/  7/  9 1029.5R
SISTER BAY       1558          130/  8/ 10   N/A
KEWAUNEE LAKESHO 1600   46     120/  5/  6 1028.3R
SHEBOYGAN LAKESH 1700   47 49  160/  8/  9 1029.3F
PORT WASHINGTON  1640   50     150/  3/  7 1029.5R
ATWATER BUOY     1700   50     130/  6/  8 1029.5S
MILWAUKEE LAKESH 1600   48     120/  8/ 11   N/A
S MID LAKE BUOY  1650   46 54  110/  4/  6 1029.3F   1/ 5
KENOSHA   LAKESH 1700   52     140/  7/  9 1028.1F
$$

TC  - TEMPERATURE IN CELSIUS
VSB - VISIBILITY IN STATUTE MILES
WCI - WIND CHILL INDEX
HX  - HEAT INDEX




USA.gov is the U.S. government's official web portal to all federal, state and local government web resources and services.